Regional Weather Roundup
Issued by NWS

Home | Current Version | Previous Version | Graphics & Text | Print | Product List | Glossary On
Versions: 1 2 3 4 5 6 7 8 9 10 11 12 13 14 15 16 17 18 19 20 21 22 23 24 25 26 27 28 29 30 31 32 33 34 35 36 37 38 39 40 41 42 43 44 45 46 47 48 49 50
000
ASUS43 KTOP 201108
RWRKS

WEATHER ROUNDUP FOR KANSAS
NATIONAL WEATHER SERVICE GOODLAND KS
600 AM CDT SUN APR 20 2014

NOTE:  "FAIR" INDICATES FEW OR NO CLOUDS BELOW 12,000 FEET WITH NO
SIGNIFICANT WEATHER AND/OR OBSTRUCTIONS TO VISIBILITY.

KSZ001>006-013>018-027>032-041>047-201200-
NORTHWEST KANSAS

CITY           SKY/WX    TMP DP  RH WIND       PRES   REMARKS
GOODLAND       CLOUDY    44  43  96 CALM      29.98F FOG
HAYS           MOCLDY    54  46  76 SE6       29.99S
HILL CITY      CLOUDY    54  50  86 SW3       29.97F
RUSSELL        CLOUDY    59  49  69 S14       29.97F
$$

KSZ061>065-074>080-084>089-201200-
SOUTHWEST KANSAS

CITY           SKY/WX    TMP DP  RH WIND       PRES   REMARKS
DODGE CITY     MOCLDY    56  50  80 S9        30.01R
ELKHART          N/A     49  42  77 S8          N/A
GARDEN CITY    MOCLDY    54  50  86 S10       29.98S
GREAT BEND     CLOUDY    59  48  67 S10       30.01R
LIBERAL        MOCLDY    54  46  76 S10       30.02S
PRATT          PTCLDY    55  46  71 S9        30.03F
$$

KSZ066>073-081>083-090>101-201200-
SOUTHEAST KANSAS

CITY           SKY/WX    TMP DP  RH WIND       PRES   REMARKS
CHANUTE        PTCLDY    52  46  80 S7        30.11F
COFFEYVILLE    PTCLDY    56  49  77 SE6       30.12S
HUTCHINSON     MOCLDY    56  48  74 S8        30.04S
MEDICINE LODGE   N/A     65  50  58 SE10      30.04R
NEWTON         MOCLDY    61  46  59 S10       30.08F
PARSONS        CLEAR     57  47  69 SE3       30.12F
WICHITA INTL   MOCLDY    59  50  72 S13       30.05F
WICHITA JABRA  MOCLDY    59  50  72 S10       30.06F
WINFIELD       CLOUDY    61  51  70 S10       30.08F
$$

KSZ007>012-019>026-033>040-048>060-102>105-201200-
NORTHEAST KANSAS

CITY           SKY/WX    TMP DP  RH WIND       PRES   REMARKS
CONCORDIA      PTCLDY    60  50  69 S20       29.98S
EMPORIA        MOCLDY    56  48  74 S10       30.07F
LAWRENCE       MOCLDY    55  46  71 S5        30.09S
MANHATTAN      CLEAR     63  49  60 S12       30.03F
OLATHE IND     CLOUDY    56  46  69 S7        30.11R
OLATHE EXE     CLOUDY    55  45  68 S5        30.10R
SALINA         MOCLDY    62  49  62 S12G22    30.02F
TOPEKA BILLARD PTCLDY    61  47  59 S7        30.07F
TOPEKA FORBES  PTCLDY    58  47  66 S8        30.07F
$$



USA.gov is the U.S. government's official web portal to all federal, state and local government web resources and services.